Time,TemperatureF,DewpointF,PressureIn,WindDirection,WindDirectionDegrees,WindSpeedMPH,WindSpeedGustMPH,Humidity,HourlyPrecipIn,Conditions,Clouds,dailyrainin,SoftwareType,DateUTC
2013-01-06 16:22:00,39.0,32.0,-100.00,South,183,8.0,14.0,75,2.83,,,-99.99,,2013-01-06 21:22:00,
2013-01-06 16:33:00,39.0,32.0,-100.00,South,186,10.0,17.0,76,9.06,,,-99.99,,2013-01-06 21:33:00,
2013-01-06 16:43:00,39.0,32.0,-100.00,SSW,197,10.0,17.0,78,31.18,,,-99.99,,2013-01-06 21:43:00,
2013-01-06 16:52:00,38.0,32.0,-100.00,SSW,201,9.0,17.0,81,-99.99,,,-99.99,,2013-01-06 21:52:00,
2013-01-06 17:02:00,37.0,32.0,-100.00,South,184,9.0,17.0,82,6.22,,,-99.99,,2013-01-06 22:02:00,
2013-01-06 17:12:00,37.0,32.0,-100.00,SW,224,7.0,17.0,84,7.36,,,-99.99,,2013-01-06 22:12:00,
2013-01-06 17:22:00,37.0,32.0,-100.00,SSW,192,7.0,17.0,85,2.83,,,-99.99,,2013-01-06 22:22:00,
2013-01-06 17:33:00,38.0,32.0,-100.00,SSW,196,8.0,17.0,86,2.83,,,-99.99,,2013-01-06 22:33:00,
2013-01-06 17:43:00,36.0,32.0,-100.00,South,176,8.0,17.0,88,4.53,,,-99.99,,2013-01-06 22:43:00,
2013-01-06 17:52:00,36.0,32.0,-100.00,SSW,197,9.0,17.0,89,2.83,,,-99.99,,2013-01-06 22:52:00,
2013-01-06 18:02:00,36.0,32.0,-100.00,South,190,9.0,17.0,89,2.83,,,-99.99,,2013-01-06 23:02:00,
2013-01-06 18:13:00,37.0,34.0,-100.00,South,177,7.0,17.0,90,4.53,,,-99.99,,2013-01-06 23:13:00,
2013-01-06 18:22:00,36.0,32.0,-100.00,SSW,197,8.0,17.0,90,1.14,,,-99.99,,2013-01-06 23:22:00,
2013-01-06 18:33:00,37.0,34.0,-100.00,South,190,9.0,17.0,90,1.14,,,-99.99,,2013-01-06 23:33:00,
2013-01-06 18:43:00,37.0,34.0,-100.00,SSW,200,9.0,17.0,90,14.17,,,-99.99,,2013-01-06 23:43:00,
2013-01-06 18:52:00,36.0,32.0,-100.00,SSW,210,11.0,17.0,90,4.53,,,-99.99,,2013-01-06 23:52:00,
2013-01-06 19:02:00,36.0,32.0,-100.00,SSW,201,9.0,17.0,91,1.14,,,-99.99,,2013-01-07 00:02:00,
2013-01-06 19:12:00,36.0,32.0,-100.00,SSE,168,9.0,9.0,91,1.14,,,-99.99,,2013-01-07 00:12:00,
2013-01-06 19:23:00,36.0,34.0,-100.00,South,186,9.0,9.0,91,4.53,,,-99.99,,2013-01-07 00:23:00,
2013-01-06 19:33:00,36.0,32.0,-100.00,SSW,197,11.0,14.0,91,4.53,,,-99.99,,2013-01-07 00:33:00,
2013-01-06 19:43:00,36.0,32.0,-100.00,SSW,192,8.0,14.0,91,2.83,,,-99.99,,2013-01-07 00:43:00,
2013-01-06 19:53:00,36.0,32.0,-100.00,South,189,9.0,14.0,90,1.14,,,-99.99,,2013-01-07 00:53:00,
2013-01-06 20:02:00,36.0,32.0,-100.00,SSW,199,10.0,14.0,90,4.53,,,-99.99,,2013-01-07 01:02:00,
2013-01-06 20:12:00,36.0,32.0,-100.00,WSW,237,9.0,14.0,90,7.36,,,-99.99,,2013-01-07 01:12:00,
2013-01-06 20:23:00,36.0,32.0,-100.00,South,183,9.0,14.0,89,2.83,,,-99.99,,2013-01-07 01:23:00,
2013-01-06 20:32:00,36.0,32.0,-100.00,SSW,193,9.0,14.0,89,0.00,,,-99.99,,2013-01-07 01:32:00,
2013-01-06 20:43:00,37.0,32.0,-100.00,South,186,11.0,14.0,89,0.00,,,-99.99,,2013-01-07 01:43:00,
2013-01-06 20:52:00,36.0,32.0,-100.00,South,189,12.0,14.0,89,0.00,,,-99.99,,2013-01-07 01:52:00,
2013-01-06 21:02:00,36.0,32.0,-100.00,South,189,12.0,14.0,89,0.00,,,-99.99,,2013-01-07 02:02:00,
2013-01-06 21:12:00,36.0,32.0,-100.00,South,190,9.0,14.0,89,2.83,,,-99.99,,2013-01-07 02:12:00,
2013-01-06 21:23:00,37.0,34.0,-100.00,SSW,192,7.0,14.0,90,0.00,,,-99.99,,2013-01-07 02:23:00,
2013-01-06 21:32:00,35.0,32.0,-100.00,SW,218,4.0,14.0,89,0.00,,,-99.99,,2013-01-07 02:32:00,
2013-01-06 21:42:00,34.0,32.0,-100.00,SW,224,7.0,14.0,89,0.00,,,-99.99,,2013-01-07 02:42:00,
2013-01-06 21:52:00,34.0,32.0,-100.00,SW,231,4.0,14.0,90,0.00,,,-99.99,,2013-01-07 02:52:00,
2013-01-06 22:02:00,34.0,32.0,-100.00,SSW,193,5.0,14.0,89,0.00,,,-99.99,,2013-01-07 03:02:00,
2013-01-06 22:12:00,34.0,32.0,-100.00,South,184,6.0,14.0,89,0.00,,,-99.99,,2013-01-07 03:12:00,
2013-01-06 22:22:00,34.0,32.0,-100.00,SW,231,6.0,14.0,88,1.14,,,-99.99,,2013-01-07 03:22:00,
2013-01-06 22:33:00,34.0,32.0,-100.00,South,187,4.0,14.0,88,0.00,,,-99.99,,2013-01-07 03:33:00,
2013-01-06 22:43:00,34.0,32.0,-100.00,South,189,4.0,14.0,88,0.00,,,-99.99,,2013-01-07 03:43:00,
2013-01-06 22:52:00,34.0,32.0,-100.00,SSW,200,4.0,14.0,88,0.00,,,-99.99,,2013-01-07 03:52:00,
2013-01-06 23:02:00,34.0,32.0,-100.00,SSW,197,5.0,14.0,88,0.00,,,-99.99,,2013-01-07 04:02:00,
2013-01-06 23:13:00,34.0,32.0,-100.00,SSW,196,6.0,14.0,88,0.00,,,-99.99,,2013-01-07 04:13:00,
2013-01-06 23:22:00,34.0,32.0,-100.00,SSW,200,6.0,14.0,86,0.00,,,-99.99,,2013-01-07 04:22:00,
2013-01-06 23:32:00,34.0,30.0,-100.00,SW,214,6.0,14.0,85,0.00,,,-99.99,,2013-01-07 04:32:00,
2013-01-06 23:42:00,34.0,30.0,-100.00,SSW,197,6.0,14.0,85,0.00,,,-99.99,,2013-01-07 04:42:00,
2013-01-06 23:52:00,34.0,30.0,-100.00,SSW,199,6.0,14.0,85,0.00,,,-99.99,,2013-01-07 04:52:00,